<?xml version="1.0" encoding="UTF-8" standalone="no" ?>
<gpx xmlns="http://www.topografix.com/GPX/1/1" xmlns:xsi="http://www.w3.org/2001/XMLSchema-instance" xsi:schemaLocation="http://www.topografix.com/GPX/1/1 http://www.topografix.com/GPX/1/1/gpx.xsd" version="1.1" creator="VisuGPX - https://www.visugpx.com">
  <metadata>
    <name>Randonnée du 09/07/2022 à 08:41</name>
    <desc><![CDATA[Petite rando pour découvrir le Causse de Gramat.]]></desc>
  </metadata>
  <trk>
    <name><![CDATA[Randonnée du 09/07/2022 à 08:41]]></name>
    <trkseg>
      <trkpt lat="44.8047" lon="1.69581">
        <ele>281</ele>
        <time>2022-07-09T11:55:30+02:00</time>
      </trkpt>
      <trkpt lat="44.80471" lon="1.69613">
        <ele>282</ele>
        <time>2022-07-09T11:55:30+02:00</time>
      </trkpt>
      <trkpt lat="44.80477" lon="1.69645">
        <ele>284</ele>
        <time>2022-07-09T11:55:30+02:00</time>
      </trkpt>
      <trkpt lat="44.80484" lon="1.69677">
        <ele>285</ele>
        <time>2022-07-09T11:55:30+02:00</time>
      </trkpt>
      <trkpt lat="44.80495" lon="1.69705">
        <ele>285</ele>
        <time>2022-07-09T11:55:30+02:00</time>
      </trkpt>
      <trkpt lat="44.80504" lon="1.69734">
        <ele>285</ele>
        <time>2022-07-09T11:55:30+02:00</time>
      </trkpt>
      <trkpt lat="44.80511" lon="1.69765">
        <ele>286</ele>
        <time>2022-07-09T11:55:30+02:00</time>
      </trkpt>
      <trkpt lat="44.80509" lon="1.69797">
        <ele>287</ele>
        <time>2022-07-09T11:55:30+02:00</time>
      </trkpt>
      <trkpt lat="44.80503" lon="1.69828">
        <ele>288</ele>
        <time>2022-07-09T11:55:30+02:00</time>
      </trkpt>
      <trkpt lat="44.80505" lon="1.6986">
        <ele>289</ele>
        <time>2022-07-09T11:55:30+02:00</time>
      </trkpt>
      <trkpt lat="44.80514" lon="1.69889">
        <ele>291</ele>
        <time>2022-07-09T11:55:30+02:00</time>
      </trkpt>
      <trkpt lat="44.80522" lon="1.6992">
        <ele>293</ele>
        <time>2022-07-09T11:55:30+02:00</time>
      </trkpt>
      <trkpt lat="44.80519" lon="1.69952">
        <ele>293</ele>
        <time>2022-07-09T11:55:30+02:00</time>
      </trkpt>
      <trkpt lat="44.80505" lon="1.69976">
        <ele>293</ele>
        <time>2022-07-09T11:55:30+02:00</time>
      </trkpt>
      <trkpt lat="44.80489" lon="1.69999">
        <ele>292</ele>
        <time>2022-07-09T11:55:30+02:00</time>
      </trkpt>
      <trkpt lat="44.80474" lon="1.70023">
        <ele>292</ele>
        <time>2022-07-09T11:55:30+02:00</time>
      </trkpt>
      <trkpt lat="44.80451" lon="1.70014">
        <ele>290</ele>
        <time>2022-07-09T11:55:30+02:00</time>
      </trkpt>
      <trkpt lat="44.80429" lon="1.70003">
        <ele>288</ele>
        <time>2022-07-09T11:55:30+02:00</time>
      </trkpt>
      <trkpt lat="44.80406" lon="1.69998">
        <ele>288</ele>
        <time>2022-07-09T11:55:30+02:00</time>
      </trkpt>
      <trkpt lat="44.80384" lon="1.69991">
        <ele>290</ele>
        <time>2022-07-09T11:55:30+02:00</time>
      </trkpt>
      <trkpt lat="44.80362" lon="1.69983">
        <ele>291</ele>
        <time>2022-07-09T11:55:30+02:00</time>
      </trkpt>
      <trkpt lat="44.80339" lon="1.69983">
        <ele>292</ele>
        <time>2022-07-09T11:55:30+02:00</time>
      </trkpt>
      <trkpt lat="44.80317" lon="1.69976">
        <ele>292</ele>
        <time>2022-07-09T11:55:30+02:00</time>
      </trkpt>
      <trkpt lat="44.80299" lon="1.69996">
        <ele>293</ele>
        <time>2022-07-09T11:55:30+02:00</time>
      </trkpt>
      <trkpt lat="44.80282" lon="1.70018">
        <ele>295</ele>
        <time>2022-07-09T11:55:30+02:00</time>
      </trkpt>
      <trkpt lat="44.80265" lon="1.70039">
        <ele>297</ele>
        <time>2022-07-09T11:55:30+02:00</time>
      </trkpt>
      <trkpt lat="44.80247" lon="1.70057">
        <ele>299</ele>
        <time>2022-07-09T11:55:30+02:00</time>
      </trkpt>
      <trkpt lat="44.80227" lon="1.70074">
        <ele>302</ele>
        <time>2022-07-09T11:55:30+02:00</time>
      </trkpt>
      <trkpt lat="44.80209" lon="1.70093">
        <ele>305</ele>
        <time>2022-07-09T11:55:30+02:00</time>
      </trkpt>
      <trkpt lat="44.8019" lon="1.70109">
        <ele>308</ele>
        <time>2022-07-09T11:55:30+02:00</time>
      </trkpt>
      <trkpt lat="44.80171" lon="1.70128">
        <ele>311</ele>
        <time>2022-07-09T11:55:30+02:00</time>
      </trkpt>
      <trkpt lat="44.80151" lon="1.70144">
        <ele>314</ele>
        <time>2022-07-09T11:55:30+02:00</time>
      </trkpt>
      <trkpt lat="44.8013" lon="1.70155">
        <ele>318</ele>
        <time>2022-07-09T11:55:30+02:00</time>
      </trkpt>
      <trkpt lat="44.80109" lon="1.70167">
        <ele>322</ele>
        <time>2022-07-09T11:55:30+02:00</time>
      </trkpt>
      <trkpt lat="44.80086" lon="1.70174">
        <ele>328</ele>
        <time>2022-07-09T11:55:30+02:00</time>
      </trkpt>
      <trkpt lat="44.80064" lon="1.70175">
        <ele>334</ele>
        <time>2022-07-09T11:55:30+02:00</time>
      </trkpt>
      <trkpt lat="44.80041" lon="1.70175">
        <ele>339</ele>
        <time>2022-07-09T11:55:30+02:00</time>
      </trkpt>
      <trkpt lat="44.80018" lon="1.70169">
        <ele>343</ele>
        <time>2022-07-09T11:55:30+02:00</time>
      </trkpt>
      <trkpt lat="44.80002" lon="1.70146">
        <ele>347</ele>
        <time>2022-07-09T11:55:30+02:00</time>
      </trkpt>
      <trkpt lat="44.7998" lon="1.70135">
        <ele>350</ele>
        <time>2022-07-09T11:55:30+02:00</time>
      </trkpt>
      <trkpt lat="44.79957" lon="1.70136">
        <ele>353</ele>
        <time>2022-07-09T11:55:30+02:00</time>
      </trkpt>
      <trkpt lat="44.79935" lon="1.70141">
        <ele>354</ele>
        <time>2022-07-09T11:55:30+02:00</time>
      </trkpt>
      <trkpt lat="44.79917" lon="1.70164">
        <ele>356</ele>
        <time>2022-07-09T11:55:30+02:00</time>
      </trkpt>
      <trkpt lat="44.79898" lon="1.7018">
        <ele>357</ele>
        <time>2022-07-09T11:55:30+02:00</time>
      </trkpt>
      <trkpt lat="44.79877" lon="1.70191">
        <ele>358</ele>
        <time>2022-07-09T11:55:30+02:00</time>
      </trkpt>
      <trkpt lat="44.79854" lon="1.7019">
        <ele>359</ele>
        <time>2022-07-09T11:55:30+02:00</time>
      </trkpt>
      <trkpt lat="44.79832" lon="1.70197">
        <ele>360</ele>
        <time>2022-07-09T11:55:30+02:00</time>
      </trkpt>
      <trkpt lat="44.79811" lon="1.70207">
        <ele>361</ele>
        <time>2022-07-09T11:55:30+02:00</time>
      </trkpt>
      <trkpt lat="44.79789" lon="1.70217">
        <ele>362</ele>
        <time>2022-07-09T11:55:30+02:00</time>
      </trkpt>
      <trkpt lat="44.79772" lon="1.70239">
        <ele>363</ele>
        <time>2022-07-09T11:55:30+02:00</time>
      </trkpt>
      <trkpt lat="44.79753" lon="1.70258">
        <ele>364</ele>
        <time>2022-07-09T11:55:30+02:00</time>
      </trkpt>
      <trkpt lat="44.79736" lon="1.70282">
        <ele>365</ele>
        <time>2022-07-09T11:55:30+02:00</time>
      </trkpt>
      <trkpt lat="44.79723" lon="1.70307">
        <ele>366</ele>
        <time>2022-07-09T11:55:30+02:00</time>
      </trkpt>
      <trkpt lat="44.79709" lon="1.70332">
        <ele>366</ele>
        <time>2022-07-09T11:55:30+02:00</time>
      </trkpt>
      <trkpt lat="44.79692" lon="1.70353">
        <ele>366</ele>
        <time>2022-07-09T11:55:30+02:00</time>
      </trkpt>
      <trkpt lat="44.79672" lon="1.70369">
        <ele>366</ele>
        <time>2022-07-09T11:55:30+02:00</time>
      </trkpt>
      <trkpt lat="44.79653" lon="1.70389">
        <ele>365</ele>
        <time>2022-07-09T11:55:30+02:00</time>
      </trkpt>
      <trkpt lat="44.79658" lon="1.70421">
        <ele>365</ele>
        <time>2022-07-09T11:55:30+02:00</time>
      </trkpt>
      <trkpt lat="44.79674" lon="1.70443">
        <ele>365</ele>
        <time>2022-07-09T11:55:30+02:00</time>
      </trkpt>
      <trkpt lat="44.79689" lon="1.70468">
        <ele>365</ele>
        <time>2022-07-09T11:55:30+02:00</time>
      </trkpt>
      <trkpt lat="44.79703" lon="1.70493">
        <ele>366</ele>
        <time>2022-07-09T11:55:30+02:00</time>
      </trkpt>
      <trkpt lat="44.7972" lon="1.70515">
        <ele>367</ele>
        <time>2022-07-09T11:55:30+02:00</time>
      </trkpt>
      <trkpt lat="44.79736" lon="1.7054">
        <ele>367</ele>
        <time>2022-07-09T11:55:30+02:00</time>
      </trkpt>
      <trkpt lat="44.79751" lon="1.70564">
        <ele>368</ele>
        <time>2022-07-09T11:55:30+02:00</time>
      </trkpt>
      <trkpt lat="44.79774" lon="1.70571">
        <ele>369</ele>
        <time>2022-07-09T11:55:30+02:00</time>
      </trkpt>
      <trkpt lat="44.79794" lon="1.70556">
        <ele>369</ele>
        <time>2022-07-09T11:55:30+02:00</time>
      </trkpt>
      <trkpt lat="44.79815" lon="1.70545">
        <ele>369</ele>
        <time>2022-07-09T11:55:30+02:00</time>
      </trkpt>
      <trkpt lat="44.79838" lon="1.70549">
        <ele>369</ele>
        <time>2022-07-09T11:55:30+02:00</time>
      </trkpt>
      <trkpt lat="44.79859" lon="1.70563">
        <ele>369</ele>
        <time>2022-07-09T11:55:30+02:00</time>
      </trkpt>
      <trkpt lat="44.7988" lon="1.70575">
        <ele>369</ele>
        <time>2022-07-09T11:55:30+02:00</time>
      </trkpt>
      <trkpt lat="44.79903" lon="1.70583">
        <ele>370</ele>
        <time>2022-07-09T11:55:30+02:00</time>
      </trkpt>
      <trkpt lat="44.79925" lon="1.70595">
        <ele>370</ele>
        <time>2022-07-09T11:55:30+02:00</time>
      </trkpt>
      <trkpt lat="44.79943" lon="1.70614">
        <ele>371</ele>
        <time>2022-07-09T11:55:30+02:00</time>
      </trkpt>
      <trkpt lat="44.79944" lon="1.70645">
        <ele>370</ele>
        <time>2022-07-09T11:55:30+02:00</time>
      </trkpt>
      <trkpt lat="44.79943" lon="1.70678">
        <ele>369</ele>
        <time>2022-07-09T11:55:30+02:00</time>
      </trkpt>
      <trkpt lat="44.7994" lon="1.70711">
        <ele>368</ele>
        <time>2022-07-09T11:55:30+02:00</time>
      </trkpt>
      <trkpt lat="44.79942" lon="1.70743">
        <ele>367</ele>
        <time>2022-07-09T11:55:30+02:00</time>
      </trkpt>
      <trkpt lat="44.7994" lon="1.70775">
        <ele>366</ele>
        <time>2022-07-09T11:55:30+02:00</time>
      </trkpt>
      <trkpt lat="44.79943" lon="1.70808">
        <ele>365</ele>
        <time>2022-07-09T11:55:30+02:00</time>
      </trkpt>
      <trkpt lat="44.79938" lon="1.70839">
        <ele>363</ele>
        <time>2022-07-09T11:55:30+02:00</time>
      </trkpt>
      <trkpt lat="44.79925" lon="1.70866">
        <ele>362</ele>
        <time>2022-07-09T11:55:30+02:00</time>
      </trkpt>
      <trkpt lat="44.79912" lon="1.70892">
        <ele>363</ele>
        <time>2022-07-09T11:55:30+02:00</time>
      </trkpt>
      <trkpt lat="44.79902" lon="1.70922">
        <ele>364</ele>
        <time>2022-07-09T11:55:30+02:00</time>
      </trkpt>
      <trkpt lat="44.79897" lon="1.70953">
        <ele>365</ele>
        <time>2022-07-09T11:55:30+02:00</time>
      </trkpt>
      <trkpt lat="44.79904" lon="1.70984">
        <ele>364</ele>
        <time>2022-07-09T11:55:30+02:00</time>
      </trkpt>
      <trkpt lat="44.799" lon="1.71015">
        <ele>365</ele>
        <time>2022-07-09T11:55:30+02:00</time>
      </trkpt>
      <trkpt lat="44.79896" lon="1.71047">
        <ele>365</ele>
        <time>2022-07-09T11:55:30+02:00</time>
      </trkpt>
      <trkpt lat="44.79893" lon="1.71079">
        <ele>365</ele>
        <time>2022-07-09T11:55:30+02:00</time>
      </trkpt>
      <trkpt lat="44.79874" lon="1.71098">
        <ele>365</ele>
        <time>2022-07-09T11:55:30+02:00</time>
      </trkpt>
      <trkpt lat="44.79853" lon="1.71109">
        <ele>366</ele>
        <time>2022-07-09T11:55:30+02:00</time>
      </trkpt>
      <trkpt lat="44.79838" lon="1.71133">
        <ele>366</ele>
        <time>2022-07-09T11:55:30+02:00</time>
      </trkpt>
      <trkpt lat="44.7983" lon="1.71163">
        <ele>365</ele>
        <time>2022-07-09T11:55:30+02:00</time>
      </trkpt>
      <trkpt lat="44.7982" lon="1.71191">
        <ele>365</ele>
        <time>2022-07-09T11:55:30+02:00</time>
      </trkpt>
      <trkpt lat="44.79811" lon="1.7122">
        <ele>365</ele>
        <time>2022-07-09T11:55:30+02:00</time>
      </trkpt>
      <trkpt lat="44.79794" lon="1.71243">
        <ele>367</ele>
        <time>2022-07-09T11:55:30+02:00</time>
      </trkpt>
      <trkpt lat="44.7979" lon="1.71274">
        <ele>367</ele>
        <time>2022-07-09T11:55:30+02:00</time>
      </trkpt>
      <trkpt lat="44.79779" lon="1.71304">
        <ele>368</ele>
        <time>2022-07-09T11:55:30+02:00</time>
      </trkpt>
      <trkpt lat="44.79786" lon="1.71334">
        <ele>367</ele>
        <time>2022-07-09T11:55:30+02:00</time>
      </trkpt>
      <trkpt lat="44.79778" lon="1.71363">
        <ele>367</ele>
        <time>2022-07-09T11:55:30+02:00</time>
      </trkpt>
      <trkpt lat="44.79762" lon="1.71388">
        <ele>367</ele>
        <time>2022-07-09T11:55:30+02:00</time>
      </trkpt>
      <trkpt lat="44.79743" lon="1.71404">
        <ele>366</ele>
        <time>2022-07-09T11:55:30+02:00</time>
      </trkpt>
      <trkpt lat="44.79721" lon="1.71414">
        <ele>365</ele>
        <time>2022-07-09T11:55:30+02:00</time>
      </trkpt>
      <trkpt lat="44.79701" lon="1.71431">
        <ele>365</ele>
        <time>2022-07-09T11:55:30+02:00</time>
      </trkpt>
      <trkpt lat="44.79685" lon="1.71454">
        <ele>363</ele>
        <time>2022-07-09T11:55:30+02:00</time>
      </trkpt>
      <trkpt lat="44.79663" lon="1.71466">
        <ele>363</ele>
        <time>2022-07-09T11:55:30+02:00</time>
      </trkpt>
      <trkpt lat="44.79643" lon="1.71481">
        <ele>362</ele>
        <time>2022-07-09T11:55:30+02:00</time>
      </trkpt>
      <trkpt lat="44.79624" lon="1.71497">
        <ele>362</ele>
        <time>2022-07-09T11:55:30+02:00</time>
      </trkpt>
      <trkpt lat="44.79606" lon="1.71518">
        <ele>361</ele>
        <time>2022-07-09T11:55:30+02:00</time>
      </trkpt>
      <trkpt lat="44.79585" lon="1.71529">
        <ele>362</ele>
        <time>2022-07-09T11:55:30+02:00</time>
      </trkpt>
      <trkpt lat="44.79564" lon="1.71544">
        <ele>361</ele>
        <time>2022-07-09T11:55:30+02:00</time>
      </trkpt>
      <trkpt lat="44.79544" lon="1.7156">
        <ele>359</ele>
        <time>2022-07-09T11:55:30+02:00</time>
      </trkpt>
      <trkpt lat="44.79523" lon="1.71571">
        <ele>358</ele>
        <time>2022-07-09T11:55:30+02:00</time>
      </trkpt>
      <trkpt lat="44.79502" lon="1.71584">
        <ele>357</ele>
        <time>2022-07-09T11:55:30+02:00</time>
      </trkpt>
      <trkpt lat="44.7948" lon="1.71595">
        <ele>356</ele>
        <time>2022-07-09T11:55:30+02:00</time>
      </trkpt>
      <trkpt lat="44.79457" lon="1.71598">
        <ele>355</ele>
        <time>2022-07-09T11:55:30+02:00</time>
      </trkpt>
      <trkpt lat="44.79435" lon="1.71605">
        <ele>353</ele>
        <time>2022-07-09T11:55:30+02:00</time>
      </trkpt>
      <trkpt lat="44.79415" lon="1.7162">
        <ele>352</ele>
        <time>2022-07-09T11:55:30+02:00</time>
      </trkpt>
      <trkpt lat="44.79394" lon="1.71634">
        <ele>351</ele>
        <time>2022-07-09T11:55:30+02:00</time>
      </trkpt>
      <trkpt lat="44.79371" lon="1.71638">
        <ele>350</ele>
        <time>2022-07-09T11:55:30+02:00</time>
      </trkpt>
      <trkpt lat="44.79349" lon="1.71648">
        <ele>350</ele>
        <time>2022-07-09T11:55:30+02:00</time>
      </trkpt>
      <trkpt lat="44.79327" lon="1.7166">
        <ele>349</ele>
        <time>2022-07-09T11:55:30+02:00</time>
      </trkpt>
      <trkpt lat="44.79305" lon="1.71671">
        <ele>350</ele>
        <time>2022-07-09T11:55:30+02:00</time>
      </trkpt>
      <trkpt lat="44.79287" lon="1.71691">
        <ele>351</ele>
        <time>2022-07-09T11:55:30+02:00</time>
      </trkpt>
      <trkpt lat="44.79273" lon="1.71717">
        <ele>351</ele>
        <time>2022-07-09T11:55:30+02:00</time>
      </trkpt>
      <trkpt lat="44.79254" lon="1.71736">
        <ele>351</ele>
        <time>2022-07-09T11:55:30+02:00</time>
      </trkpt>
      <trkpt lat="44.79234" lon="1.71753">
        <ele>352</ele>
        <time>2022-07-09T11:55:30+02:00</time>
      </trkpt>
      <trkpt lat="44.7922" lon="1.7178">
        <ele>350</ele>
        <time>2022-07-09T11:55:30+02:00</time>
      </trkpt>
      <trkpt lat="44.79208" lon="1.71807">
        <ele>348</ele>
        <time>2022-07-09T11:55:30+02:00</time>
      </trkpt>
      <trkpt lat="44.79195" lon="1.71834">
        <ele>348</ele>
        <time>2022-07-09T11:55:30+02:00</time>
      </trkpt>
      <trkpt lat="44.79179" lon="1.71856">
        <ele>348</ele>
        <time>2022-07-09T11:55:30+02:00</time>
      </trkpt>
      <trkpt lat="44.79162" lon="1.71879">
        <ele>348</ele>
        <time>2022-07-09T11:55:30+02:00</time>
      </trkpt>
      <trkpt lat="44.79142" lon="1.71893">
        <ele>349</ele>
        <time>2022-07-09T11:55:30+02:00</time>
      </trkpt>
      <trkpt lat="44.79119" lon="1.71895">
        <ele>350</ele>
        <time>2022-07-09T11:55:30+02:00</time>
      </trkpt>
      <trkpt lat="44.79099" lon="1.7191">
        <ele>351</ele>
        <time>2022-07-09T11:55:30+02:00</time>
      </trkpt>
      <trkpt lat="44.79079" lon="1.71927">
        <ele>352</ele>
        <time>2022-07-09T11:55:30+02:00</time>
      </trkpt>
      <trkpt lat="44.79062" lon="1.71948">
        <ele>352</ele>
        <time>2022-07-09T11:55:30+02:00</time>
      </trkpt>
      <trkpt lat="44.79059" lon="1.7198">
        <ele>350</ele>
        <time>2022-07-09T11:55:30+02:00</time>
      </trkpt>
      <trkpt lat="44.79068" lon="1.72009">
        <ele>349</ele>
        <time>2022-07-09T11:55:30+02:00</time>
      </trkpt>
      <trkpt lat="44.7907" lon="1.72042">
        <ele>347</ele>
        <time>2022-07-09T11:55:30+02:00</time>
      </trkpt>
      <trkpt lat="44.7906" lon="1.72072">
        <ele>347</ele>
        <time>2022-07-09T11:55:30+02:00</time>
      </trkpt>
      <trkpt lat="44.79049" lon="1.721">
        <ele>347</ele>
        <time>2022-07-09T11:55:30+02:00</time>
      </trkpt>
      <trkpt lat="44.79049" lon="1.72133">
        <ele>346</ele>
        <time>2022-07-09T11:55:30+02:00</time>
      </trkpt>
      <trkpt lat="44.79047" lon="1.72164">
        <ele>345</ele>
        <time>2022-07-09T11:55:30+02:00</time>
      </trkpt>
      <trkpt lat="44.79049" lon="1.72196">
        <ele>345</ele>
        <time>2022-07-09T11:55:30+02:00</time>
      </trkpt>
      <trkpt lat="44.79053" lon="1.7223">
        <ele>343</ele>
        <time>2022-07-09T11:55:30+02:00</time>
      </trkpt>
      <trkpt lat="44.79034" lon="1.7225">
        <ele>343</ele>
        <time>2022-07-09T11:55:30+02:00</time>
      </trkpt>
      <trkpt lat="44.79017" lon="1.72271">
        <ele>340</ele>
        <time>2022-07-09T11:55:30+02:00</time>
      </trkpt>
      <trkpt lat="44.79001" lon="1.72294">
        <ele>337</ele>
        <time>2022-07-09T11:55:30+02:00</time>
      </trkpt>
      <trkpt lat="44.78988" lon="1.7232">
        <ele>333</ele>
        <time>2022-07-09T11:55:30+02:00</time>
      </trkpt>
      <trkpt lat="44.78978" lon="1.72349">
        <ele>329</ele>
        <time>2022-07-09T11:55:30+02:00</time>
      </trkpt>
      <trkpt lat="44.78965" lon="1.72376">
        <ele>325</ele>
        <time>2022-07-09T11:55:30+02:00</time>
      </trkpt>
      <trkpt lat="44.78951" lon="1.72402">
        <ele>322</ele>
        <time>2022-07-09T11:55:30+02:00</time>
      </trkpt>
      <trkpt lat="44.78936" lon="1.72429">
        <ele>318</ele>
        <time>2022-07-09T11:55:30+02:00</time>
      </trkpt>
      <trkpt lat="44.78919" lon="1.72452">
        <ele>315</ele>
        <time>2022-07-09T11:55:30+02:00</time>
      </trkpt>
      <trkpt lat="44.7894" lon="1.72464">
        <ele>314</ele>
        <time>2022-07-09T11:55:30+02:00</time>
      </trkpt>
      <trkpt lat="44.78961" lon="1.72453">
        <ele>315</ele>
        <time>2022-07-09T11:55:30+02:00</time>
      </trkpt>
      <trkpt lat="44.78983" lon="1.72444">
        <ele>315</ele>
        <time>2022-07-09T11:55:30+02:00</time>
      </trkpt>
      <trkpt lat="44.79006" lon="1.72441">
        <ele>315</ele>
        <time>2022-07-09T11:55:30+02:00</time>
      </trkpt>
      <trkpt lat="44.79029" lon="1.72443">
        <ele>315</ele>
        <time>2022-07-09T11:55:30+02:00</time>
      </trkpt>
      <trkpt lat="44.79051" lon="1.72442">
        <ele>314</ele>
        <time>2022-07-09T11:55:30+02:00</time>
      </trkpt>
      <trkpt lat="44.79074" lon="1.72446">
        <ele>314</ele>
        <time>2022-07-09T11:55:30+02:00</time>
      </trkpt>
      <trkpt lat="44.79096" lon="1.72455">
        <ele>313</ele>
        <time>2022-07-09T11:55:30+02:00</time>
      </trkpt>
      <trkpt lat="44.79114" lon="1.72474">
        <ele>314</ele>
        <time>2022-07-09T11:55:30+02:00</time>
      </trkpt>
      <trkpt lat="44.79135" lon="1.72488">
        <ele>313</ele>
        <time>2022-07-09T11:55:30+02:00</time>
      </trkpt>
      <trkpt lat="44.79156" lon="1.72497">
        <ele>313</ele>
        <time>2022-07-09T11:55:30+02:00</time>
      </trkpt>
      <trkpt lat="44.79178" lon="1.7251">
        <ele>314</ele>
        <time>2022-07-09T11:55:30+02:00</time>
      </trkpt>
      <trkpt lat="44.792" lon="1.7252">
        <ele>314</ele>
        <time>2022-07-09T11:55:30+02:00</time>
      </trkpt>
      <trkpt lat="44.79221" lon="1.72534">
        <ele>315</ele>
        <time>2022-07-09T11:55:30+02:00</time>
      </trkpt>
      <trkpt lat="44.79242" lon="1.72546">
        <ele>316</ele>
        <time>2022-07-09T11:55:30+02:00</time>
      </trkpt>
      <trkpt lat="44.79264" lon="1.72558">
        <ele>317</ele>
        <time>2022-07-09T11:55:30+02:00</time>
      </trkpt>
      <trkpt lat="44.79286" lon="1.72566">
        <ele>318</ele>
        <time>2022-07-09T11:55:30+02:00</time>
      </trkpt>
      <trkpt lat="44.79309" lon="1.72571">
        <ele>319</ele>
        <time>2022-07-09T11:55:30+02:00</time>
      </trkpt>
      <trkpt lat="44.79331" lon="1.7258">
        <ele>320</ele>
        <time>2022-07-09T11:55:30+02:00</time>
      </trkpt>
      <trkpt lat="44.79353" lon="1.72589">
        <ele>320</ele>
        <time>2022-07-09T11:55:30+02:00</time>
      </trkpt>
      <trkpt lat="44.79376" lon="1.72596">
        <ele>321</ele>
        <time>2022-07-09T11:55:30+02:00</time>
      </trkpt>
      <trkpt lat="44.79399" lon="1.72602">
        <ele>321</ele>
        <time>2022-07-09T11:55:30+02:00</time>
      </trkpt>
      <trkpt lat="44.79422" lon="1.72608">
        <ele>321</ele>
        <time>2022-07-09T11:55:30+02:00</time>
      </trkpt>
      <trkpt lat="44.79444" lon="1.72616">
        <ele>321</ele>
        <time>2022-07-09T11:55:30+02:00</time>
      </trkpt>
      <trkpt lat="44.79467" lon="1.72615">
        <ele>321</ele>
        <time>2022-07-09T11:55:30+02:00</time>
      </trkpt>
      <trkpt lat="44.7949" lon="1.72612">
        <ele>322</ele>
        <time>2022-07-09T11:55:30+02:00</time>
      </trkpt>
      <trkpt lat="44.79513" lon="1.72611">
        <ele>322</ele>
        <time>2022-07-09T11:55:30+02:00</time>
      </trkpt>
      <trkpt lat="44.79535" lon="1.72599">
        <ele>322</ele>
        <time>2022-07-09T11:55:30+02:00</time>
      </trkpt>
      <trkpt lat="44.79552" lon="1.72578">
        <ele>324</ele>
        <time>2022-07-09T11:55:30+02:00</time>
      </trkpt>
      <trkpt lat="44.79567" lon="1.72553">
        <ele>324</ele>
        <time>2022-07-09T11:55:30+02:00</time>
      </trkpt>
      <trkpt lat="44.79585" lon="1.72532">
        <ele>324</ele>
        <time>2022-07-09T11:55:30+02:00</time>
      </trkpt>
      <trkpt lat="44.79602" lon="1.72509">
        <ele>324</ele>
        <time>2022-07-09T11:55:30+02:00</time>
      </trkpt>
      <trkpt lat="44.7962" lon="1.72488">
        <ele>323</ele>
        <time>2022-07-09T11:55:30+02:00</time>
      </trkpt>
      <trkpt lat="44.79639" lon="1.7247">
        <ele>322</ele>
        <time>2022-07-09T11:55:30+02:00</time>
      </trkpt>
      <trkpt lat="44.7966" lon="1.72461">
        <ele>321</ele>
        <time>2022-07-09T11:55:30+02:00</time>
      </trkpt>
      <trkpt lat="44.7968" lon="1.72443">
        <ele>320</ele>
        <time>2022-07-09T11:55:30+02:00</time>
      </trkpt>
      <trkpt lat="44.79701" lon="1.7243">
        <ele>320</ele>
        <time>2022-07-09T11:55:30+02:00</time>
      </trkpt>
      <trkpt lat="44.79724" lon="1.72428">
        <ele>319</ele>
        <time>2022-07-09T11:55:30+02:00</time>
      </trkpt>
      <trkpt lat="44.79747" lon="1.72424">
        <ele>319</ele>
        <time>2022-07-09T11:55:30+02:00</time>
      </trkpt>
      <trkpt lat="44.7977" lon="1.72427">
        <ele>319</ele>
        <time>2022-07-09T11:55:30+02:00</time>
      </trkpt>
      <trkpt lat="44.79793" lon="1.72428">
        <ele>320</ele>
        <time>2022-07-09T11:55:30+02:00</time>
      </trkpt>
      <trkpt lat="44.79816" lon="1.72427">
        <ele>320</ele>
        <time>2022-07-09T11:55:30+02:00</time>
      </trkpt>
      <trkpt lat="44.79837" lon="1.72416">
        <ele>320</ele>
        <time>2022-07-09T11:55:30+02:00</time>
      </trkpt>
      <trkpt lat="44.79858" lon="1.72404">
        <ele>320</ele>
        <time>2022-07-09T11:55:30+02:00</time>
      </trkpt>
      <trkpt lat="44.79879" lon="1.72393">
        <ele>320</ele>
        <time>2022-07-09T11:55:30+02:00</time>
      </trkpt>
      <trkpt lat="44.79902" lon="1.72383">
        <ele>320</ele>
        <time>2022-07-09T11:55:30+02:00</time>
      </trkpt>
      <trkpt lat="44.79922" lon="1.72367">
        <ele>320</ele>
        <time>2022-07-09T11:55:30+02:00</time>
      </trkpt>
      <trkpt lat="44.79943" lon="1.72355">
        <ele>321</ele>
        <time>2022-07-09T11:55:30+02:00</time>
      </trkpt>
      <trkpt lat="44.79966" lon="1.72352">
        <ele>323</ele>
        <time>2022-07-09T11:55:30+02:00</time>
      </trkpt>
      <trkpt lat="44.79985" lon="1.72334">
        <ele>325</ele>
        <time>2022-07-09T11:55:30+02:00</time>
      </trkpt>
      <trkpt lat="44.80003" lon="1.72315">
        <ele>329</ele>
        <time>2022-07-09T11:55:30+02:00</time>
      </trkpt>
      <trkpt lat="44.80015" lon="1.72288">
        <ele>332</ele>
        <time>2022-07-09T11:55:30+02:00</time>
      </trkpt>
      <trkpt lat="44.80029" lon="1.72263">
        <ele>334</ele>
        <time>2022-07-09T11:55:30+02:00</time>
      </trkpt>
      <trkpt lat="44.80049" lon="1.72246">
        <ele>337</ele>
        <time>2022-07-09T11:55:30+02:00</time>
      </trkpt>
      <trkpt lat="44.80073" lon="1.72251">
        <ele>341</ele>
        <time>2022-07-09T11:55:30+02:00</time>
      </trkpt>
      <trkpt lat="44.80095" lon="1.72259">
        <ele>344</ele>
        <time>2022-07-09T11:55:30+02:00</time>
      </trkpt>
      <trkpt lat="44.80118" lon="1.72265">
        <ele>345</ele>
        <time>2022-07-09T11:55:30+02:00</time>
      </trkpt>
      <trkpt lat="44.80141" lon="1.72267">
        <ele>346</ele>
        <time>2022-07-09T11:55:30+02:00</time>
      </trkpt>
      <trkpt lat="44.80164" lon="1.72268">
        <ele>346</ele>
        <time>2022-07-09T11:55:30+02:00</time>
      </trkpt>
      <trkpt lat="44.80187" lon="1.72267">
        <ele>350</ele>
        <time>2022-07-09T11:55:30+02:00</time>
      </trkpt>
      <trkpt lat="44.80209" lon="1.72273">
        <ele>351</ele>
        <time>2022-07-09T11:55:30+02:00</time>
      </trkpt>
      <trkpt lat="44.80231" lon="1.72285">
        <ele>351</ele>
        <time>2022-07-09T11:55:30+02:00</time>
      </trkpt>
      <trkpt lat="44.80254" lon="1.72279">
        <ele>351</ele>
        <time>2022-07-09T11:55:30+02:00</time>
      </trkpt>
      <trkpt lat="44.80276" lon="1.72281">
        <ele>350</ele>
        <time>2022-07-09T11:55:30+02:00</time>
      </trkpt>
      <trkpt lat="44.80278" lon="1.72248">
        <ele>350</ele>
        <time>2022-07-09T11:55:30+02:00</time>
      </trkpt>
      <trkpt lat="44.80267" lon="1.72219">
        <ele>348</ele>
        <time>2022-07-09T11:55:30+02:00</time>
      </trkpt>
      <trkpt lat="44.80255" lon="1.72191">
        <ele>347</ele>
        <time>2022-07-09T11:55:30+02:00</time>
      </trkpt>
      <trkpt lat="44.80243" lon="1.72165">
        <ele>346</ele>
        <time>2022-07-09T11:55:30+02:00</time>
      </trkpt>
      <trkpt lat="44.80232" lon="1.72136">
        <ele>346</ele>
        <time>2022-07-09T11:55:30+02:00</time>
      </trkpt>
      <trkpt lat="44.80214" lon="1.72115">
        <ele>344</ele>
        <time>2022-07-09T11:55:30+02:00</time>
      </trkpt>
      <trkpt lat="44.80201" lon="1.72088">
        <ele>342</ele>
        <time>2022-07-09T11:55:30+02:00</time>
      </trkpt>
      <trkpt lat="44.80194" lon="1.72058">
        <ele>340</ele>
        <time>2022-07-09T11:55:30+02:00</time>
      </trkpt>
      <trkpt lat="44.80195" lon="1.72025">
        <ele>338</ele>
        <time>2022-07-09T11:55:30+02:00</time>
      </trkpt>
      <trkpt lat="44.80198" lon="1.71992">
        <ele>338</ele>
        <time>2022-07-09T11:55:30+02:00</time>
      </trkpt>
      <trkpt lat="44.80202" lon="1.7196">
        <ele>337</ele>
        <time>2022-07-09T11:55:30+02:00</time>
      </trkpt>
      <trkpt lat="44.80203" lon="1.71928">
        <ele>336</ele>
        <time>2022-07-09T11:55:30+02:00</time>
      </trkpt>
      <trkpt lat="44.80205" lon="1.71896">
        <ele>335</ele>
        <time>2022-07-09T11:55:30+02:00</time>
      </trkpt>
      <trkpt lat="44.80209" lon="1.71865">
        <ele>335</ele>
        <time>2022-07-09T11:55:30+02:00</time>
      </trkpt>
      <trkpt lat="44.80217" lon="1.71835">
        <ele>334</ele>
        <time>2022-07-09T11:55:30+02:00</time>
      </trkpt>
      <trkpt lat="44.80225" lon="1.71804">
        <ele>334</ele>
        <time>2022-07-09T11:55:30+02:00</time>
      </trkpt>
      <trkpt lat="44.80237" lon="1.71777">
        <ele>333</ele>
        <time>2022-07-09T11:55:30+02:00</time>
      </trkpt>
      <trkpt lat="44.80247" lon="1.71749">
        <ele>332</ele>
        <time>2022-07-09T11:55:30+02:00</time>
      </trkpt>
      <trkpt lat="44.8026" lon="1.71722">
        <ele>331</ele>
        <time>2022-07-09T11:55:30+02:00</time>
      </trkpt>
      <trkpt lat="44.80271" lon="1.71693">
        <ele>330</ele>
        <time>2022-07-09T11:55:30+02:00</time>
      </trkpt>
      <trkpt lat="44.80283" lon="1.71666">
        <ele>329</ele>
        <time>2022-07-09T11:55:30+02:00</time>
      </trkpt>
      <trkpt lat="44.80296" lon="1.7164">
        <ele>328</ele>
        <time>2022-07-09T11:55:30+02:00</time>
      </trkpt>
      <trkpt lat="44.80304" lon="1.7161">
        <ele>327</ele>
        <time>2022-07-09T11:55:30+02:00</time>
      </trkpt>
      <trkpt lat="44.80311" lon="1.71579">
        <ele>327</ele>
        <time>2022-07-09T11:55:30+02:00</time>
      </trkpt>
      <trkpt lat="44.80322" lon="1.7155">
        <ele>327</ele>
        <time>2022-07-09T11:55:30+02:00</time>
      </trkpt>
      <trkpt lat="44.80334" lon="1.71521">
        <ele>327</ele>
        <time>2022-07-09T11:55:30+02:00</time>
      </trkpt>
      <trkpt lat="44.8035" lon="1.71497">
        <ele>328</ele>
        <time>2022-07-09T11:55:30+02:00</time>
      </trkpt>
      <trkpt lat="44.8036" lon="1.71467">
        <ele>329</ele>
        <time>2022-07-09T11:55:30+02:00</time>
      </trkpt>
      <trkpt lat="44.80369" lon="1.71438">
        <ele>329</ele>
        <time>2022-07-09T11:55:30+02:00</time>
      </trkpt>
      <trkpt lat="44.80378" lon="1.71408">
        <ele>329</ele>
        <time>2022-07-09T11:55:30+02:00</time>
      </trkpt>
      <trkpt lat="44.80388" lon="1.7138">
        <ele>328</ele>
        <time>2022-07-09T11:55:30+02:00</time>
      </trkpt>
      <trkpt lat="44.80392" lon="1.71347">
        <ele>328</ele>
        <time>2022-07-09T11:55:30+02:00</time>
      </trkpt>
      <trkpt lat="44.80388" lon="1.71315">
        <ele>325</ele>
        <time>2022-07-09T11:55:30+02:00</time>
      </trkpt>
      <trkpt lat="44.80381" lon="1.71283">
        <ele>322</ele>
        <time>2022-07-09T11:55:30+02:00</time>
      </trkpt>
      <trkpt lat="44.80372" lon="1.71253">
        <ele>321</ele>
        <time>2022-07-09T11:55:30+02:00</time>
      </trkpt>
      <trkpt lat="44.80366" lon="1.71222">
        <ele>321</ele>
        <time>2022-07-09T11:55:30+02:00</time>
      </trkpt>
      <trkpt lat="44.80359" lon="1.71191">
        <ele>323</ele>
        <time>2022-07-09T11:55:30+02:00</time>
      </trkpt>
      <trkpt lat="44.80357" lon="1.71159">
        <ele>326</ele>
        <time>2022-07-09T11:55:30+02:00</time>
      </trkpt>
      <trkpt lat="44.80357" lon="1.71127">
        <ele>326</ele>
        <time>2022-07-09T11:55:30+02:00</time>
      </trkpt>
      <trkpt lat="44.8036" lon="1.71095">
        <ele>326</ele>
        <time>2022-07-09T11:55:30+02:00</time>
      </trkpt>
      <trkpt lat="44.80362" lon="1.71064">
        <ele>327</ele>
        <time>2022-07-09T11:55:30+02:00</time>
      </trkpt>
      <trkpt lat="44.80368" lon="1.71032">
        <ele>327</ele>
        <time>2022-07-09T11:55:30+02:00</time>
      </trkpt>
      <trkpt lat="44.80376" lon="1.71001">
        <ele>327</ele>
        <time>2022-07-09T11:55:30+02:00</time>
      </trkpt>
      <trkpt lat="44.8039" lon="1.70977">
        <ele>327</ele>
        <time>2022-07-09T11:55:30+02:00</time>
      </trkpt>
      <trkpt lat="44.80406" lon="1.70954">
        <ele>327</ele>
        <time>2022-07-09T11:55:30+02:00</time>
      </trkpt>
      <trkpt lat="44.80424" lon="1.70934">
        <ele>326</ele>
        <time>2022-07-09T11:55:30+02:00</time>
      </trkpt>
      <trkpt lat="44.8044" lon="1.70912">
        <ele>326</ele>
        <time>2022-07-09T11:55:30+02:00</time>
      </trkpt>
      <trkpt lat="44.80449" lon="1.70882">
        <ele>325</ele>
        <time>2022-07-09T11:55:30+02:00</time>
      </trkpt>
      <trkpt lat="44.80458" lon="1.70853">
        <ele>324</ele>
        <time>2022-07-09T11:55:30+02:00</time>
      </trkpt>
      <trkpt lat="44.80468" lon="1.70825">
        <ele>323</ele>
        <time>2022-07-09T11:55:30+02:00</time>
      </trkpt>
      <trkpt lat="44.80481" lon="1.70798">
        <ele>323</ele>
        <time>2022-07-09T11:55:30+02:00</time>
      </trkpt>
      <trkpt lat="44.80493" lon="1.7077">
        <ele>323</ele>
        <time>2022-07-09T11:55:30+02:00</time>
      </trkpt>
      <trkpt lat="44.80502" lon="1.7074">
        <ele>324</ele>
        <time>2022-07-09T11:55:30+02:00</time>
      </trkpt>
      <trkpt lat="44.80511" lon="1.7071">
        <ele>325</ele>
        <time>2022-07-09T11:55:30+02:00</time>
      </trkpt>
      <trkpt lat="44.80519" lon="1.7068">
        <ele>324</ele>
        <time>2022-07-09T11:55:30+02:00</time>
      </trkpt>
      <trkpt lat="44.80532" lon="1.70653">
        <ele>324</ele>
        <time>2022-07-09T11:55:30+02:00</time>
      </trkpt>
      <trkpt lat="44.80543" lon="1.70624">
        <ele>323</ele>
        <time>2022-07-09T11:55:30+02:00</time>
      </trkpt>
      <trkpt lat="44.80557" lon="1.70598">
        <ele>323</ele>
        <time>2022-07-09T11:55:30+02:00</time>
      </trkpt>
      <trkpt lat="44.80568" lon="1.7057">
        <ele>321</ele>
        <time>2022-07-09T11:55:30+02:00</time>
      </trkpt>
      <trkpt lat="44.80573" lon="1.70539">
        <ele>320</ele>
        <time>2022-07-09T11:55:30+02:00</time>
      </trkpt>
      <trkpt lat="44.80578" lon="1.70508">
        <ele>319</ele>
        <time>2022-07-09T11:55:30+02:00</time>
      </trkpt>
      <trkpt lat="44.80583" lon="1.70477">
        <ele>319</ele>
        <time>2022-07-09T11:55:30+02:00</time>
      </trkpt>
      <trkpt lat="44.80587" lon="1.70444">
        <ele>319</ele>
        <time>2022-07-09T11:55:30+02:00</time>
      </trkpt>
      <trkpt lat="44.80585" lon="1.70412">
        <ele>319</ele>
        <time>2022-07-09T11:55:30+02:00</time>
      </trkpt>
      <trkpt lat="44.80577" lon="1.70383">
        <ele>318</ele>
        <time>2022-07-09T11:55:30+02:00</time>
      </trkpt>
      <trkpt lat="44.80572" lon="1.70351">
        <ele>317</ele>
        <time>2022-07-09T11:55:30+02:00</time>
      </trkpt>
      <trkpt lat="44.8057" lon="1.70318">
        <ele>317</ele>
        <time>2022-07-09T11:55:30+02:00</time>
      </trkpt>
      <trkpt lat="44.80566" lon="1.70286">
        <ele>315</ele>
        <time>2022-07-09T11:55:30+02:00</time>
      </trkpt>
      <trkpt lat="44.80564" lon="1.70254">
        <ele>313</ele>
        <time>2022-07-09T11:55:30+02:00</time>
      </trkpt>
      <trkpt lat="44.80561" lon="1.70222">
        <ele>311</ele>
        <time>2022-07-09T11:55:30+02:00</time>
      </trkpt>
      <trkpt lat="44.8056" lon="1.7019">
        <ele>308</ele>
        <time>2022-07-09T11:55:30+02:00</time>
      </trkpt>
      <trkpt lat="44.80555" lon="1.70158">
        <ele>306</ele>
        <time>2022-07-09T11:55:30+02:00</time>
      </trkpt>
      <trkpt lat="44.80549" lon="1.70126">
        <ele>304</ele>
        <time>2022-07-09T11:55:30+02:00</time>
      </trkpt>
      <trkpt lat="44.80544" lon="1.70095">
        <ele>302</ele>
        <time>2022-07-09T11:55:30+02:00</time>
      </trkpt>
      <trkpt lat="44.80539" lon="1.70064">
        <ele>300</ele>
        <time>2022-07-09T11:55:30+02:00</time>
      </trkpt>
      <trkpt lat="44.80532" lon="1.70033">
        <ele>298</ele>
        <time>2022-07-09T11:55:30+02:00</time>
      </trkpt>
      <trkpt lat="44.80536" lon="1.70001">
        <ele>297</ele>
        <time>2022-07-09T11:55:30+02:00</time>
      </trkpt>
      <trkpt lat="44.80543" lon="1.6997">
        <ele>296</ele>
        <time>2022-07-09T11:55:30+02:00</time>
      </trkpt>
      <trkpt lat="44.8053" lon="1.69943">
        <ele>294</ele>
        <time>2022-07-09T11:55:30+02:00</time>
      </trkpt>
      <trkpt lat="44.80514" lon="1.69919">
        <ele>292</ele>
        <time>2022-07-09T11:55:30+02:00</time>
      </trkpt>
      <trkpt lat="44.80508" lon="1.69887">
        <ele>290</ele>
        <time>2022-07-09T11:55:30+02:00</time>
      </trkpt>
      <trkpt lat="44.80504" lon="1.69855">
        <ele>290</ele>
        <time>2022-07-09T11:55:30+02:00</time>
      </trkpt>
      <trkpt lat="44.80507" lon="1.69822">
        <ele>288</ele>
        <time>2022-07-09T11:55:30+02:00</time>
      </trkpt>
      <trkpt lat="44.80512" lon="1.69791">
        <ele>287</ele>
        <time>2022-07-09T11:55:30+02:00</time>
      </trkpt>
      <trkpt lat="44.80508" lon="1.69757">
        <ele>286</ele>
        <time>2022-07-09T11:55:30+02:00</time>
      </trkpt>
      <trkpt lat="44.80497" lon="1.6973">
        <ele>285</ele>
        <time>2022-07-09T11:55:30+02:00</time>
      </trkpt>
      <trkpt lat="44.80487" lon="1.69701">
        <ele>285</ele>
        <time>2022-07-09T11:55:30+02:00</time>
      </trkpt>
      <trkpt lat="44.80479" lon="1.6967">
        <ele>285</ele>
        <time>2022-07-09T11:55:30+02:00</time>
      </trkpt>
      <trkpt lat="44.80473" lon="1.69639">
        <ele>284</ele>
        <time>2022-07-09T11:55:30+02:00</time>
      </trkpt>
      <trkpt lat="44.8047" lon="1.69607">
        <ele>282</ele>
        <time>2022-07-09T11:55:30+02:00</time>
      </trkpt>
      <trkpt lat="44.80465" lon="1.69576">
        <ele>281</ele>
        <time>2022-07-09T11:55:30+02:00</time>
      </trkpt>
      <trkpt lat="44.80443" lon="1.69587">
        <ele>281</ele>
        <time>2022-07-09T11:55:30+02:00</time>
      </trkpt>
    </trkseg>
  </trk>
</gpx>